Location: 3 Angels Observatory
(30.5437°N, 88.5068°W)
Time: 20:04:37
(UTC-05:00)

Oscar 19 - Visible Passes

Search period start: 25 July 2014 00:00
Search period end: 04 August 2014 00:00
Orbit: 774 x 792 km, 98.5° (Epoch: 25 July)

Date Brightness Start Highest point End Pass type
(mag) Time Alt. Az. Time Alt. Az. Time Alt. Az.
25 Jul 12.2 02:20:21 10° NNE 02:23:03 32° NNE 02:23:03 32° NNE visible
25 Jul 12.9 04:02:58 10° NW 04:03:38 11° WNW 04:03:38 11° WNW visible
26 Jul 12.9 01:49:19 10° NE 01:51:04 19° NE 01:51:04 19° NE visible
26 Jul 12.4 03:29:01 10° NNW 03:31:38 21° NW 03:31:38 21° NW visible
27 Jul 12.0 02:56:44 10° N 02:59:39 32° NNW 02:59:39 32° NNW visible
28 Jul 12.3 02:25:03 10° NNE 02:27:40 31° NNE 02:27:40 31° NNE visible
29 Jul 12.9 01:53:54 10° NNE 01:55:40 20° NE 01:55:40 20° NE visible
29 Jul 12.5 03:33:55 10° NNW 03:36:14 19° NW 03:36:14 19° NW visible
30 Jul 12.2 03:01:31 10° N 03:04:15 29° NNW 03:04:15 29° NNW visible
31 Jul 12.3 02:29:45 10° NNE 02:32:15 30° NNE 02:32:15 30° NNE visible
01 Aug 12.9 01:58:31 10° NNE 02:00:15 20° NE 02:00:15 20° NE visible
01 Aug 12.6 03:38:51 10° NNW 03:40:50 17° NW 03:40:50 17° NW visible
02 Aug 13.5 01:28:06 10° NE 01:28:16 11° NE 01:28:16 11° NE visible
02 Aug 12.3 03:06:18 10° N 03:08:50 26° NNW 03:08:50 26° NNW visible
03 Aug 12.4 02:34:28 10° N 02:36:50 28° N 02:36:50 28° N visible
